JH4GLG-13 Weather Reports


time (UTC)temp
C
wind
direction
speed
KPH
gust
KPH
rain 1hr
cm
rain 24hr
cm
rain mn
cm
humidity
%
barometer
mb
20260507031147 24 0 0.0 0.0 0.00 0.00 0.00 60 1013.6
20260507025648 23 0 0.0 0.0 0.00 0.00 0.00 62 1013.8
20260507024146 24 0 0.0 0.0 0.00 0.00 0.00 61 1013.9
20260507022651 24 0 0.0 0.0 0.00 0.00 0.00 61 1013.9
20260507022647 24 0 0.0 0.0 0.00 0.00 0.00 60 1014.0
20260507021146 25 0 0.0 0.0 0.00 0.00 0.00 58 1014.1
20260507015700 25 0 0.0 0.0 0.00 0.00 0.00 57 1014.2
20260507014146 26 0 0.0 0.0 0.00 0.00 0.00 54 1014.3
20260507012647 26 0 0.0 0.0 0.00 0.00 0.00 57 1014.4
20260507011145 26 0 0.0 0.0 0.00 0.00 0.00 54 1014.8
20260507005646 26 0 0.0 0.0 0.00 0.00 0.00 56 1015.0
20260507004145 25 0 0.0 0.0 0.00 0.00 0.00 57 1015.2
20260507002646 23 0 0.0 0.0 0.00 0.00 0.00 62 1015.3
20260507001145 23 0 0.0 0.0 0.00 0.00 0.00 62 1015.5
20260506235727 22 0 0.0 0.0 0.00 0.00 0.00 66 1015.6
20260506235646 22 0 0.0 0.0 0.00 0.00 0.00 66 1015.6
20260506234145 21 0 0.0 0.0 0.00 0.00 0.00 68 1015.7
20260506232728 21 0 0.0 0.0 0.00 0.00 0.00 70 1015.8
20260506232646 21 0 0.0 0.0 0.00 0.00 0.00 70 1015.8
20260506231144 21 0 0.0 0.0 0.00 0.00 0.00 70 1015.9
20260506225646 20 0 0.0 0.0 0.00 0.00 0.00 71 1016.2
20260506224144 19 0 0.0 0.0 0.00 0.00 0.00 75 1016.4
20260506222645 18 0 0.0 0.0 0.00 0.00 0.00 77 1016.3
20260506221144 17 0 0.0 0.0 0.00 0.00 0.00 79 1016.3
20260506215645 17 0 0.0 0.0 0.00 0.00 0.00 81 1016.2
20260506214144 16 0 0.0 0.0 0.00 0.00 0.00 85 1016.5
20260506212645 15 0 0.0 0.0 0.00 0.00 0.00 87 1016.4
20260506211144 15 0 0.0 0.0 0.00 0.00 0.00 90 1016.5
20260506205645 14 0 0.0 0.0 0.00 0.00 0.00 93 1016.4
20260506204143 13 0 0.0 0.0 0.00 0.00 0.00 93 1016.3
20260506202645 13 0 0.0 0.0 0.00 0.00 0.00 93 1016.1
20260506201143 13 0 0.0 0.0 0.00 0.00 0.00 94 1016.1
20260506195644 13 0 0.0 0.0 0.00 0.00 0.00 93 1016.0
20260506194143 13 0 0.0 0.0 0.00 0.00 0.00 96 1016.1
20260506192644 13 0 0.0 0.0 0.00 0.00 0.00 94 1016.2
20260506191142 -17 0 0.0 0.0 0.00 0.00 0.00 1016.3
20260506185644 13 0 0.0 0.0 0.00 0.00 0.00 94 1016.3
20260506184143 14 0 0.0 0.0 0.00 0.00 0.00 89 1016.2
20260506182643 14 0 0.0 0.0 0.00 0.00 0.00 89 1016.3
20260506181142 14 0 0.0 0.0 0.00 0.00 0.00 89 1016.3
20260506175644 14 0 0.0 0.0 0.00 0.00 0.00 89 1016.4
20260506174143 14 0 0.0 0.0 0.00 0.00 0.00 89 1016.6
20260506172644 15 0 0.0 0.0 0.00 0.00 0.00 89 1016.5
20260506171142 15 0 0.0 0.0 0.00 0.00 0.00 88 1016.7
20260506165643 15 0 0.0 0.0 0.00 0.00 0.00 88 1016.8
20260506164142 15 0 0.0 0.0 0.00 0.00 0.00 89 1016.8
20260506162642 15 0 0.0 0.0 0.00 0.00 0.00 88 1016.9
20260506161142 15 0 0.0 0.0 0.00 0.00 0.00 87 1017.0
20260506155643 15 0 0.0 0.0 0.00 0.00 0.00 88 1017.1
20260506154142 15 0 0.0 0.0 0.00 0.00 0.00 87 1017.2
20260506152642 15 0 0.0 0.0 0.00 0.00 0.00 87 1017.3
20260506151141 15 0 0.0 0.0 0.00 0.00 0.00 87 1017.5
20260506145643 16 0 0.0 0.0 0.00 0.00 0.00 86 1017.6
20260506144141 16 0 0.0 0.0 0.00 0.00 0.00 85 1017.8
20260506142642 16 0 0.0 0.0 0.00 0.00 0.00 85 1017.9
20260506141140 16 0 0.0 0.0 0.00 0.00 0.00 85 1017.7
20260506135641 16 0 0.0 0.0 0.00 0.00 0.00 84 1017.8
20260506134140 16 0 0.0 0.0 0.00 0.00 0.00 83 1017.8
20260506132726 16 0 0.0 0.0 0.00 0.00 0.00 83 1017.8
20260506132642 16 0 0.0 0.0 0.00 0.00 0.00 83 1017.8
20260506131141 17 0 0.0 0.0 0.00 0.00 0.00 83 1017.6
20260506125643 17 0 0.0 0.0 0.00 0.00 0.00 83 1017.6
20260506124140 17 0 0.0 0.0 0.00 0.00 0.00 81 1017.6
20260506122641 17 0 0.0 0.0 0.00 0.00 0.00 81 1017.5
20260506121139 17 0 0.0 0.0 0.00 0.00 0.00 80 1017.5
20260506115641 18 0 0.0 0.0 0.00 0.00 0.00 80 1017.2
20260506114140 18 0 0.0 0.0 0.00 0.00 0.00 80 1017.4
20260506112641 18 0 0.0 0.0 0.00 0.00 0.00 79 1017.2
20260506111140 18 0 0.0 0.0 0.00 0.00 0.00 79 1017.3
20260506105641 18 0 0.0 0.0 0.00 0.00 0.00 77 1017.1
20260506104140 18 0 0.0 0.0 0.00 0.00 0.00 75 1017.1
20260506102640 18 0 0.0 0.0 0.00 0.00 0.00 75 1017.0
20260506101138 19 0 0.0 0.0 0.00 0.00 0.00 74 1016.9
20260506095639 19 0 0.0 0.0 0.00 0.00 0.00 73 1017.1
20260506094138 20 0 0.0 0.0 0.00 0.00 0.00 70 1017.0
20260506092712 20 0 0.0 0.0 0.00 0.00 0.00 69 1017.1
20260506092639 20 0 0.0 0.0 0.00 0.00 0.00 69 1017.1
20260506091138 21 0 0.0 0.0 0.00 0.00 0.00 67 1017.0
20260506085715 21 0 0.0 0.0 0.00 0.00 0.00 66 1017.0
20260506085639 21 0 0.0 0.0 0.00 0.00 0.00 66 1017.0
20260506084138 21 0 0.0 0.0 0.00 0.00 0.00 65 1017.0
20260506082639 21 0 0.0 0.0 0.00 0.00 0.00 64 1017.0
20260506081138 21 0 0.0 0.0 0.00 0.00 0.00 64 1017.0
20260506072639 22 0 0.0 0.0 0.00 0.00 0.00 60 1017.1
20260506071138 22 0 0.0 0.0 0.00 0.00 0.00 59 1017.0
20260506061137 23 0 0.0 0.0 0.00 0.00 0.00 56 1017.5
20260506051137 23 0 0.0 0.0 0.00 0.00 0.00 55 1017.9
20260506044137 23 0 0.0 0.0 0.00 0.00 0.00 58 1017.9
20260506042638 -17 0 0.0 0.0 0.00 0.00 0.00 1018.3
20260506041136 23 0 0.0 0.0 0.00 0.00 0.00 57 1018.7
20260506035638 23 0 0.0 0.0 0.00 0.00 0.00 54 1018.7
20260506034135 24 0 0.0 0.0 0.00 0.00 0.00 51 1018.8
20260506032637 25 0 0.0 0.0 0.00 0.00 0.00 50 1019.2